DW8689 Weather Reports


time (UTC)temp
C
wind
direction
speed
KPH
gust
KPH
rain 1hr
cm
rain 24hr
cm
rain mn
cm
humidity
%
barometer
mb
20260503200009 11 30 4.8 8.0 0.00 0.00 0.00 89 1008.8
20260503194009 11 30 4.8 8.0 0.00 0.00 0.00 86 1008.3
20260503193508 11 30 4.8 8.0 0.00 0.00 0.00 86 1008.3
20260503192508 11 30 4.8 8.0 0.00 0.00 0.00 86 1008.2
20260503192011 11 30 4.8 8.0 0.00 0.00 0.00 86 1008.2
20260503191509 11 30 4.8 8.0 0.00 0.00 0.00 86 1008.1
20260503191008 11 30 4.8 8.0 0.00 0.00 0.00 86 1008.1
20260503190509 11 30 4.8 8.0 0.00 0.00 0.00 86 1008.0
20260503190011 11 30 4.8 8.0 0.00 0.00 0.00 86 1007.9
20260503185508 11 30 4.8 8.0 0.00 0.00 0.00 86 1007.8
20260503185009 11 30 4.8 8.0 0.00 0.00 0.00 86 1007.8
20260503184009 11 50 6.4 11.3 0.00 0.00 0.00 86 1007.8
20260503183508 11 50 6.4 11.3 0.00 0.00 0.00 85 1007.6
20260503183009 11 44 6.4 11.3 0.00 0.00 0.00 85 1007.8
20260503182509 11 40 6.4 12.9 0.00 0.00 0.00 85 1007.7
20260503182009 11 42 6.4 16.1 0.00 0.00 0.00 85 1007.7
20260503181509 11 42 6.4 16.1 0.00 0.00 0.00 85 1007.7
20260503181009 11 38 6.4 12.9 0.00 0.00 0.00 84 1007.7
20260503180509 12 41 6.4 12.9 0.00 0.00 0.00 84 1007.7
20260503180009 12 45 4.8 12.9 0.00 0.00 0.00 84 1007.7
20260503175509 12 43 4.8 14.5 0.00 0.00 0.00 84 1007.6
20260503174508 12 36 8.0 14.5 0.00 0.00 0.00 83 1007.6
20260503174009 12 33 8.0 14.5 0.00 0.00 0.00 83 1007.6
20260503173508 12 49 3.2 3.2 0.00 0.00 0.00 83 1007.6
20260503173009 12 49 3.2 3.2 0.00 0.00 0.00 83 1007.5
20260503172508 12 49 3.2 3.2 0.00 0.00 0.00 83 1007.5
20260503172009 12 49 3.2 3.2 0.00 0.00 0.00 83 1007.5
20260503171509 12 49 3.2 3.2 0.00 0.00 0.00 83 1007.5
20260503171009 12 49 3.2 3.2 0.00 0.00 0.00 83 1007.4
20260503170508 12 49 3.2 3.2 0.00 0.00 0.00 83 1007.3
20260503150512 12 40 6.4 16.1 0.00 0.00 0.00 83 1007.2
20260503130508 12 46 4.8 12.9 0.00 0.18 0.00 82 1007.0
20260503110509 12 42 4.8 9.7 0.00 0.33 0.00 87 1007.1
20260503090508 10 35 4.8 11.3 0.00 0.51 0.00 91 1007.1
20260503081508 10 40 3.2 8.0 0.00 0.51 0.00 92 1007.0
20260503080508 9 39 3.2 9.7 0.00 0.51 0.00 92 1007.0
20260503072508 9 33 3.2 9.7 0.00 0.51 0.00 92 1006.8
20260503072008 9 33 3.2 8.0 0.00 0.51 0.00 92 1006.7
20260503071508 9 35 3.2 11.3 0.00 0.51 0.00 92 1006.6
20260503071007 9 37 3.2 11.3 0.00 0.51 0.00 92 1006.6
20260503070508 9 37 4.8 11.3 0.00 0.51 0.00 92 1006.6
20260503055007 8 34 3.2 8.0 0.00 0.51 0.00 92 1006.0
20260503054508 8 33 3.2 8.0 0.00 0.51 0.00 92 1006.0
20260503054007 8 32 3.2 8.0 0.00 0.51 0.00 92 1006.0
20260503053507 8 30 3.2 8.0 0.00 0.51 0.00 92 1006.0
20260503053008 8 36 3.2 8.0 0.00 0.51 0.00 92 1006.0
20260503052508 8 36 3.2 8.0 0.00 0.51 0.00 92 1005.9
20260503052007 8 36 3.2 8.0 0.00 0.51 0.00 92 1006.0
20260503050008 8 37 4.8 11.3 0.00 0.51 0.00 92 1006.0
20260503045507 8 35 4.8 11.3 0.00 0.51 0.00 92 1006.0
20260503045008 8 32 3.2 8.0 0.00 0.51 0.00 92 1006.0
20260503044508 8 32 3.2 8.0 0.00 0.51 0.00 92 1006.0
20260503044008 8 32 3.2 8.0 0.00 0.51 0.00 92 1006.1
20260503043008 8 36 3.2 9.7 0.00 0.51 0.00 92 1006.0
20260503042508 8 36 3.2 8.0 0.00 0.51 0.00 92 1006.0
20260503042008 8 34 3.2 8.0 0.00 0.51 0.00 92 1006.1
20260503041007 8 37 3.2 6.4 0.00 0.51 0.00 92 1006.1
20260503040009 8 36 3.2 6.4 0.00 0.51 0.00 92 1006.2
20260503035506 8 36 3.2 6.4 0.00 0.51 0.00 92 1006.3
20260503035008 8 35 3.2 4.8 0.00 0.51 0.00 92 1006.3
20260503034507 8 37 1.6 4.8 0.00 0.51 0.00 92 1006.3
20260503034008 8 38 1.6 4.8 0.00 0.51 0.00 92 1006.3
20260503033508 7 40 1.6 4.8 0.00 0.51 0.00 92 1006.4
20260503033008 7 38 1.6 4.8 0.00 0.51 0.00 92 1006.4
20260503032508 7 38 1.6 6.4 0.00 0.51 0.00 92 1006.4
20260503032008 7 40 3.2 6.4 0.00 0.51 0.00 91 1006.4
20260503031507 7 39 3.2 6.4 0.00 0.51 0.00 91 1006.4
20260503030508 7 39 3.2 6.4 0.00 0.51 0.00 91 1006.4
20260503030008 7 39 3.2 6.4 0.00 0.51 0.00 91 1006.3
20260503025507 7 33 3.2 9.7 0.00 0.51 0.00 91 1006.3
20260503025008 7 32 3.2 9.7 0.00 0.51 0.00 91 1006.3
20260503024507 7 32 3.2 6.4 0.00 0.51 0.00 91 1006.3
20260503024008 7 30 3.2 9.7 0.00 0.51 0.00 91 1006.3
20260503023507 7 32 4.8 9.7 0.00 0.51 0.00 91 1006.4
20260503023008 7 35 4.8 9.7 0.00 0.51 0.00 91 1006.4
20260503022507 7 34 3.2 8.0 0.00 0.51 0.00 91 1006.4
20260503022009 7 35 1.6 6.4 0.00 0.51 0.00 91 1006.4
20260503021508 7 36 1.6 6.4 0.00 0.51 0.00 91 1006.4
20260503021009 7 36 1.6 4.8 0.00 0.51 0.00 91 1006.4
20260503020508 7 36 1.6 4.8 0.00 0.51 0.00 91 1006.5
20260503015508 7 33 1.6 3.2 0.00 0.51 0.00 91 1006.5
20260503015008 7 34 1.6 3.2 0.00 0.51 0.00 91 1006.5
20260503014508 7 37 1.6 3.2 0.00 0.51 0.00 91 1006.6
20260503014008 7 39 1.6 3.2 0.00 0.51 0.00 91 1006.6
20260503013508 7 40 0.0 3.2 0.00 0.51 0.00 91 1006.6
20260503013009 7 38 0.0 3.2 0.00 0.51 0.00 91 1006.6
20260503012508 7 37 1.6 3.2 0.00 0.51 0.00 90 1006.7
20260503012007 7 37 1.6 3.2 0.00 0.51 0.00 90 1006.7
20260503011007 7 36 1.6 3.2 0.00 0.51 0.00 90 1006.8
20260503010008 7 37 0.0 1.6 0.00 0.51 0.00 90 1006.9
20260503004508 7 37 0.0 1.6 0.00 0.51 0.00 90 1006.9
20260503004008 7 37 0.0 1.6 0.00 0.51 0.00 90 1006.9
20260503003508 7 40 0.0 1.6 0.00 0.51 0.00 90 1006.9
20260503003008 7 41 1.6 3.2 0.00 0.51 0.00 90 1006.9
20260503002008 8 36 3.2 6.4 0.00 0.51 0.00 90 1006.9
20260503001008 8 37 3.2 8.0 0.00 0.51 0.00 90 1006.8
20260503000007 8 35 4.8 6.4 0.00 0.51 0.00 90 1006.8
20260502235508 8 35 3.2 6.4 0.00 0.51 0.00 90 1006.8
20260502235008 8 40 3.2 6.4 0.00 0.51 0.00 90 1006.8
20260502234508 8 38 1.6 6.4 0.00 0.51 0.00 90 1006.8
20260502234007 8 34 1.6 6.4 0.00 0.51 0.00 90 1006.9
20260502233507 8 37 3.2 4.8 0.00 0.51 0.00 90 1006.8
20260502233008 8 38 1.6 4.8 0.00 0.51 0.00 89 1006.8
20260502232507 8 35 1.6 4.8 0.00 0.51 0.00 89 1006.8
20260502232009 8 32 1.6 4.8 0.00 0.51 0.00 90 1006.8
20260502231508 8 33 1.6 4.8 0.00 0.51 0.00 89 1006.8
20260502231008 8 34 1.6 4.8 0.00 0.51 0.00 89 1006.8
20260502230508 8 36 1.6 6.4 0.00 0.51 0.00 89 1006.7
20260502230011 8 38 1.6 6.4 0.00 0.51 0.00 89 1006.7
20260502225507 8 41 1.6 4.8 0.00 0.51 0.51 89 1006.7
20260502225008 8 45 1.6 3.2 0.00 0.51 0.51 89 1006.7
20260502224507 8 49 0.0 3.2 0.00 0.51 0.51 89 1006.7
20260502224007 8 48 0.0 3.2 0.00 0.51 0.51 89 1006.7
20260502223507 8 48 0.0 3.2 0.00 0.51 0.51 89 1006.8
20260502223008 8 48 0.0 3.2 0.00 0.51 0.51 89 1006.8
20260502222508 8 44 0.0 3.2 0.00 0.51 0.51 89 1006.9
20260502221508 8 42 0.0 3.2 0.00 0.51 0.51 88 1006.9
20260502221008 8 42 0.0 3.2 0.00 0.51 0.51 88 1006.9
20260502220507 8 42 0.0 1.6 0.00 0.51 0.51 88 1007.0
20260502220009 8 42 0.0 1.6 0.00 0.51 0.51 88 1006.9
20260502215508 8 42 0.0 3.2 0.00 0.51 0.51 88 1006.9
20260502215008 8 42 0.0 4.8 0.00 0.51 0.51 88 1006.9
20260502214508 9 42 0.0 4.8 0.00 0.51 0.51 88 1007.0
20260502213508 9 43 0.0 1.6 0.00 0.51 0.51 87 1007.0
20260502213008 9 43 0.0 1.6 0.00 0.51 0.51 87 1007.0
20260502212507 9 0 0.0 0.0 0.00 0.51 0.51 87 1007.0
20260502212008 9 0 0.0 0.0 0.00 0.51 0.51 87 1007.0
20260502211507 9 0 0.0 0.0 0.00 0.51 0.51 87 1007.0
20260502211007 10 46 0.0 1.6 0.00 0.51 0.51 87 1007.0
20260502210508 10 46 0.0 1.6 0.00 0.51 0.51 87 1007.0
20260502210007 10 0 0.0 0.0 0.00 0.51 0.51 87 1007.0
20260502205507 10 0 0.0 0.0 0.00 0.51 0.51 87 1006.9
20260502204508 10 0 0.0 0.0 0.00 0.51 0.51 85 1006.8
20260502204008 10 0 0.0 0.0 0.00 0.51 0.51 85 1006.8
20260502203508 10 0 0.0 0.0 0.00 0.51 0.51 85 1006.8
20260502203008 10 0 0.0 0.0 0.00 0.51 0.51 85 1006.7
20260502202507 10 0 0.0 0.0 0.00 0.51 0.51 85 1006.6
20260502202007 10 0 0.0 0.0 0.00 0.51 0.51 84 1006.7
20260502201507 10 0 0.0 0.0 0.00 0.51 0.51 84 1006.6
20260502201007 10 0 0.0 0.0 0.00 0.51 0.51 84 1006.6
20260502200507 10 0 0.0 0.0 0.00 0.51 0.51 84 1006.5